Weather History for Sydney Airport, New South Wales

Change the Weather History Date:

Saturday, October 19, 2013

  Actual Average Record
Temperature  
Mean Temperature 64 °F -  
Max Temperature 74 °F 74 °F - ()
Min Temperature 54 °F 58 °F - ()
Degree Days  
Heating Degree Days 1    
Growing Degree Days 14 (Base 50)    
Moisture  
Dew Point 47 °F    
Average Humidity 50    
Maximum Humidity 72    
Minimum Humidity 21    
Precipitation  
Precipitation 0.00 in 0.12 in - ()
Sea Level Pressure  
Sea Level Pressure 30.29 in    
Wind  
Wind Speed 9 mph ()    
Max Wind Speed 20 mph    
Max Gust Speed -    
Visibility 6.9 miles    
Events      
T = Trace of Precipitation, MM = Missing Value Source: Averaged Metar Reports

Daily Weather History Graph

Daily Weather History Graph

Search for Another Location

Airport:

Trip Planner

Search our weather history database for the weather conditions in past years. The results will help you decide how hot, cold, wet, or windy it might be!

Date:

Astronomy

Oct. 19, 2013 Rise Set
Actual Time 6:09 AM AEDT 7:11 PM AEDT
Civil Twilight 5:43 AM AEDT 7:37 PM AEDT
Nautical Twilight 5:13 AM AEDT 8:08 PM AEDT
Astronomical Twilight 4:41 AM AEDT 8:39 PM AEDT
Moon 7:29 PM AEDT (10/19) 6:00 AM AEDT (10/19)
Length of Visible Light 13h 54m
Length of Day
13h 02m
Full, 100% of the Moon is Illuminated
Oct 19
Full
Oct 27
Last Quarter
Nov 3
New
Nov 10
First Quarter
Nov 18
Full

Hourly Weather History & Observations

Time (AEDT) Temp. Dew Point Humidity Pressure Visibility Wind Dir Wind Speed Gust Speed Precip Events Conditions
12:00 AM 61 °F 46 °F 48% 30.36 in 16 mi NW 5.8 mph - -   Smoke
12:00 AM 60.8 °F 46.4 °F 59% 30.36 in - NW 5.8 mph - N/A   Clear
12:30 AM 60.8 °F 46.4 °F 59% 30.33 in - WNW 6.9 mph - N/A   Clear
1:00 AM 61 °F 46 °F 47% 30.35 in - NW 6.9 mph - -  
1:00 AM 60.8 °F 46.4 °F 59% 30.33 in - NW 6.9 mph - N/A   Clear
1:30 AM 60.8 °F 46.4 °F 59% 30.33 in - WNW 6.9 mph - N/A   Clear
2:00 AM 58 °F 46 °F 55% 30.34 in - NW 6.9 mph - -  
2:00 AM 59.0 °F 46.4 °F 63% 30.33 in - NW 6.9 mph - N/A   Clear
2:30 AM 59.0 °F 46.4 °F 63% 30.33 in - North 5.8 mph - N/A   Clear
3:00 AM 59 °F 46 °F 51% 30.32 in 16 mi North 5.8 mph - -   Smoke
3:00 AM 59.0 °F 46.4 °F 63% 30.30 in - North 5.8 mph - N/A   Clear
3:30 AM 57.2 °F 46.4 °F 67% 30.30 in - NNW 5.8 mph - N/A   Clear
4:00 AM 57 °F 46 °F 58% 30.31 in - NNW 5.8 mph - -  
4:00 AM 57.2 °F 46.4 °F 67% 30.30 in - NNW 5.8 mph - N/A   Clear
4:30 AM 57.2 °F 46.4 °F 67% 30.30 in - NNW 6.9 mph - N/A   Clear
5:00 AM 56 °F 46 °F 61% 30.32 in - NW 6.9 mph - -  
5:00 AM 55.4 °F 46.4 °F 72% 30.30 in - NW 6.9 mph - N/A   Clear
5:30 AM 55.4 °F 46.4 °F 72% 30.30 in 6.2 mi NW 6.9 mph - N/A   Partly Cloudy
6:00 AM 56 °F 46 °F 59% 30.33 in 9 mi NW 5.8 mph - -   Smoke
6:00 AM 55.4 °F 46.4 °F 72% 30.33 in - NW 5.8 mph - N/A   Clear
6:30 AM 57.2 °F 44.6 °F 63% 30.33 in - NNW 5.8 mph - N/A   Clear
7:00 AM 56 °F 46 °F 60% 30.35 in - North 5.8 mph - -  
7:00 AM 57.2 °F 46.4 °F 67% 30.33 in 4.3 mi North 5.8 mph - N/A   Unknown
7:30 AM 59.0 °F 46.4 °F 63% 30.33 in 2.2 mi NW 5.8 mph - N/A   Smoke
8:00 AM 60 °F 46 °F 49% 30.35 in - NW 6.9 mph - -  
8:00 AM 59.0 °F 46.4 °F 63% 30.33 in 1.9 mi NW 6.9 mph - N/A   Smoke
8:30 AM 64.4 °F 46.4 °F 52% 30.36 in 1.9 mi WNW 6.9 mph - N/A   Smoke
9:00 AM 65 °F 45 °F 37% 30.36 in 2 mi WNW 6.9 mph - -   Smoke
9:00 AM 64.4 °F 44.6 °F 49% 30.36 in 1.9 mi WNW 6.9 mph - N/A   Smoke
9:30 AM 66.2 °F 46.4 °F 49% 30.36 in 3.7 mi WNW 6.9 mph - N/A   Unknown
10:00 AM 69 °F 46 °F 33% 30.37 in - NW 8.1 mph - -  
10:00 AM 69.8 °F 46.4 °F 43% 30.36 in 5.0 mi NW 8.1 mph - N/A   Unknown
10:30 AM 71.6 °F 42.8 °F 35% 30.36 in 5.6 mi NNE 6.9 mph - N/A   Unknown
11:00 AM 71 °F 43 °F 25% 30.35 in - NNE 5.8 mph - -  
11:00 AM 71.6 °F 42.8 °F 35% 30.33 in - NNE 5.8 mph - N/A   Clear
11:30 AM 71.6 °F 42.8 °F 35% 30.33 in - North 5.8 mph - N/A   Clear
12:00 PM 74 °F 42 °F 21% 30.33 in 7 mi NE 12.7 mph - -   Smoke
12:00 PM 73.4 °F 42.8 °F 33% 30.33 in - NE 12.7 mph - N/A   Clear
12:30 PM 73.4 °F 39.2 °F 29% 30.30 in - ENE 18.4 mph - N/A   Clear
1:00 PM 71 °F 40 °F 22% 30.30 in - ENE 17.3 mph - -  
1:00 PM 71.6 °F 41.0 °F 33% 30.30 in - ENE 17.3 mph - N/A   Clear
1:30 PM 71.6 °F 41.0 °F 33% 30.27 in - ENE 18.4 mph - N/A   Clear
2:00 PM 70 °F 43 °F 26% 30.28 in - ENE 16.1 mph - -  
2:00 PM 69.8 °F 42.8 °F 38% 30.27 in - ENE 16.1 mph - N/A   Clear
2:30 PM 69.8 °F 44.6 °F 40% 30.24 in - ENE 18.4 mph - N/A   Clear
3:00 PM 72 °F 42 °F 23% 30.25 in 9 mi NE 19.6 mph - -   Smoke
3:00 PM 71.6 °F 42.8 °F 35% 30.24 in - NE 19.6 mph - N/A   Clear
3:30 PM 71.6 °F 42.8 °F 35% 30.21 in - ENE 19.6 mph - N/A   Clear
4:00 PM 70 °F 44 °F 27% 30.23 in - ENE 19.6 mph - -  
4:00 PM 69.8 °F 44.6 °F 40% 30.21 in - ENE 19.6 mph - N/A   Clear
4:30 PM 71.6 °F 42.8 °F 35% 30.21 in - ENE 19.6 mph - N/A   Clear
5:00 PM 72 °F 43 °F 25% 30.22 in - NE 18.4 mph - -  
5:00 PM 71.6 °F 42.8 °F 35% 30.21 in - NE 18.4 mph - N/A   Clear
5:30 PM 69.8 °F 44.6 °F 40% 30.21 in - NE 19.6 mph - N/A   Clear
6:00 PM 69 °F 47 °F 35% 30.22 in 16 mi NE 17.3 mph - -   Smoke
6:00 PM 69.8 °F 48.2 °F 46% 30.21 in - NE 17.3 mph - N/A   Clear
6:30 PM 69.8 °F 50.0 °F 49% 30.21 in - NE 18.4 mph - N/A   Clear
7:00 PM 69 °F 52 °F 45% 30.23 in - NE 16.1 mph - -  
7:30 PM 68.0 °F 53.6 °F 60% 30.21 in - NE 16.1 mph - N/A   Clear
8:00 PM 68 °F 55 °F 53% 30.24 in - NNE 16.1 mph - -  
8:00 PM 68.0 °F 55.4 °F 64% 30.21 in 6.2 mi NNE 16.1 mph - N/A   Partly Cloudy
8:30 PM 68.0 °F 55.4 °F 64% 30.24 in 6.2 mi NNE 12.7 mph - N/A   Partly Cloudy
9:00 PM 69 °F 56 °F 55% 30.25 in 15 mi NNE 12.7 mph - -   Smoke
9:00 PM 68.0 °F 57.2 °F 68% 30.24 in 6.2 mi NNE 12.7 mph - N/A   Partly Cloudy
9:30 PM 68.0 °F 57.2 °F 68% 30.24 in 6.2 mi NNE 15.0 mph - N/A   Partly Cloudy
10:00 PM 69 °F 56 °F 55% 30.25 in - NNE 15.0 mph - -  
10:00 PM 69.8 °F 57.2 °F 64% 30.24 in 6.2 mi NNE 15.0 mph - N/A   Partly Cloudy
10:30 PM 68.0 °F 55.4 °F 64% 30.24 in 6.2 mi NNE 10.4 mph - N/A   Partly Cloudy
11:00 PM 69 °F 56 °F 54% 30.24 in - NNE 12.7 mph - -  
11:00 PM 69.8 °F 55.4 °F 60% 30.21 in 6.2 mi NNE 12.7 mph - N/A   Partly Cloudy
11:30 PM 68.0 °F 57.2 °F 68% 30.21 in 6.2 mi North 12.7 mph - N/A   Partly Cloudy